COSMOS 2251 DEB

Satellite information

Favourite Embed

Satellite Type and Status

DEBRISIN ORBIT

Key statistics

Satellite COSMOS 2251 DEB at a glance.

Uptime

11773

Days in orbit

Revolutions

≈ 14.5

Per day

Orbit

LEO

Low Earth Orbit

Inclination

74.0

Latest

Satellite identification and parameters

Extended collection of information and parameters for COSMOS 2251 DEB.

Object identification

Identified? True

Debris? True

Object name: COSMOS 2251 DEB

International designator: 1993-036APB

Object number (NORAD): 35660

Object ID (CCSDS): 35660

Country: COMMONWEALTH OF INDEPENDENT STATES (CIS)

Current information (Y/N): Y

RCS size: SMALL

Orbital parameters

Period: 99.347 minutes

Inclination: 74.0417 deg

SMA: 7105.523 km

Apoapsis: 738.94 km

Periapsis: 715.836 km

RAAN: 312.0377 deg

Eccentricy: 0.00162578

Argument of periapsis: 124.9402 deg

Mean anomaly: 253.6133 deg

Mean motion: 14.49468125 rev/day

Mean motion (dot): 0.00001509 rev/day2

B* drag term: 0.00040038992 1/REarth

Two-line elements (TLE)

Creation date: Sept. 8, 2025, 6:18 p.m.

Reference frame: TEME

Reference center: EARTH

Epoch: Sept. 8, 2025, 10:41 a.m. UTC

TLE line 0: 0 COSMOS 2251 DEB

TLE line 1: 1 35660U 93036APB 25251.44532711 .00001509 00000-0 40039-3 0 9997

TLE line 2: 2 35660 74.0417 312.0377 0016258 124.9402 253.6133 14.49468125644902

Live tracking on map

Real-time ground track for satellite COSMOS 2251 DEB.

In-orbit conjunctions

A list of the most updated potential collisions computed for object COSMOS 2251 DEB.

Target Orbit TCA Probability of collision Miss distance Type
BREEZE-KM R/B SSO 2025-08-24 22:57:24 0.00192587 96.0 (m) ROCKET BODY
FENGYUN 1C DEB SSO 2024-11-10 21:15:53 0.0004039668 222.0 (m) DEBRIS

Associated space launch

Military communications satellite. Destroyed in a collision with Iridium 33.

COSMOS 2251 DEB was lifted into orbit during the mission ‘Kosmos-3M | Strela-2M 51’, on board a Kosmos-3M space rocket.

The launch took place on June 16, 1993, 4:17 a.m. from 132/1 (132L).

For more information about the launch, click the button.

Launch to space Kosmos-3M | Strela-2M 51
Kosmos-3M | Strela-2M 51

Agency: N/A

Status: Launch Successful

Launch date: June 16, 1993, 4:17 a.m. UTC

Rocket: Kosmos-3M

Launch pad: 132/1 (132L)

Location: Plesetsk Cosmodrome, Russian Federation

...

Latest news about this satellite

There are no fresh news available about this satellite. Check back as we update our databases every day.


Newsletter sign-up

Weekly statistics, charts and insights to help you stay on top of the space industry.